CSB0133 EPGD-LSZH

Flight info

Callsign CSB0133
Flight time 1h 21m
Altitude 38000
Route DEXIR T671 VEKON L730 ALUKA DCT GODUR DCT AMOSA N869 TEDGO T724 RILAX
Aircraft MD11/H-SDE1E2E3FGHIJ2J3J4J5M1RWXY/LB1D1

Departure

Time 2026-04-30 09:20
Airport Gdańsk Lech Wałęsa Airport (EPGD)

Arrival

Time 2026-04-30 10:42
Airport Zürich Airport (LSZH)
Time Latitude Longitude Altitude Speed Heading
2026-04-30 08:36 54.38025 18.46758 464 ft 0 kts 23°
2026-04-30 09:08 54.38011 18.46747 466 ft 4 kts 26°
2026-04-30 09:08 54.37987 18.46725 465 ft 4 kts 33°
2026-04-30 09:08 54.37966 18.46699 467 ft 4 kts 43°
2026-04-30 09:09 54.37948 18.46666 467 ft 4 kts 60°
2026-04-30 09:09 54.37939 18.46628 467 ft 4 kts 91°
2026-04-30 09:09 54.37940 18.46607 467 ft 2 kts 113°
2026-04-30 09:15 54.37939 18.46607 467 ft 0 kts 113°
2026-04-30 09:15 54.37938 18.46614 467 ft 2 kts 113°
2026-04-30 09:15 54.37923 18.46675 467 ft 11 kts 113°
2026-04-30 09:16 54.37884 18.46836 466 ft 18 kts 112°
2026-04-30 09:16 54.37831 18.47053 467 ft 22 kts 113°
2026-04-30 09:16 54.37766 18.47311 467 ft 25 kts 113°
2026-04-30 09:16 54.37698 18.47584 469 ft 24 kts 113°
2026-04-30 09:17 54.37634 18.47844 474 ft 23 kts 113°
2026-04-30 09:17 54.37573 18.48091 475 ft 22 kts 113°
2026-04-30 09:17 54.37515 18.48327 484 ft 21 kts 112°
2026-04-30 09:17 54.37460 18.48550 486 ft 20 kts 113°
2026-04-30 09:18 54.37405 18.48768 499 ft 20 kts 113°
2026-04-30 09:18 54.37349 18.48997 502 ft 21 kts 113°
2026-04-30 09:18 54.37302 18.49185 503 ft 14 kts 113°
2026-04-30 09:18 54.37243 18.49264 504 ft 9 kts 173°
2026-04-30 09:19 54.37190 18.49227 503 ft 8 kts 219°
2026-04-30 09:19 54.37157 18.49141 503 ft 9 kts 247°
2026-04-30 09:19 54.37159 18.49043 502 ft 9 kts 291°
2026-04-30 09:19 54.37188 18.48928 502 ft 16 kts 292°
2026-04-30 09:20 54.37367 18.48197 479 ft 121 kts 293°
2026-04-30 09:20 54.37784 18.46437 736 ft 180 kts 290°
2026-04-30 09:20 54.38276 18.44413 1786 ft 190 kts 291°
2026-04-30 09:20 54.38774 18.42301 2916 ft 193 kts 290°
2026-04-30 09:21 54.39268 18.40129 3959 ft 198 kts 290°
2026-04-30 09:21 54.39701 18.37861 4916 ft 204 kts 282°
2026-04-30 09:21 54.39653 18.35397 5734 ft 213 kts 256°
2026-04-30 09:21 54.39112 18.32885 6266 ft 238 kts 252°
2026-04-30 09:22 54.38497 18.30119 6819 ft 255 kts 253°
2026-04-30 09:22 54.37861 18.27199 7461 ft 270 kts 253°
2026-04-30 09:22 54.37243 18.24118 8298 ft 274 kts 256°
2026-04-30 09:22 54.36683 18.20988 9256 ft 275 kts 257°
2026-04-30 09:23 54.36112 18.17837 10074 ft 280 kts 258°
2026-04-30 09:23 54.35534 18.14560 10610 ft 299 kts 258°
2026-04-30 09:23 54.34904 18.10949 10751 ft 332 kts 258°
2026-04-30 09:23 54.34212 18.07037 10907 ft 362 kts 257°
2026-04-30 09:24 54.33453 18.02870 11675 ft 370 kts 257°
2026-04-30 09:24 54.32667 17.98631 12494 ft 377 kts 257°
2026-04-30 09:24 54.31861 17.94321 13324 ft 382 kts 257°
2026-04-30 09:24 54.31043 17.89954 14142 ft 388 kts 257°
2026-04-30 09:25 54.30213 17.85528 14949 ft 393 kts 257°
2026-04-30 09:25 54.29369 17.81031 15704 ft 398 kts 257°
2026-04-30 09:25 54.28513 17.76490 16466 ft 403 kts 257°
2026-04-30 09:25 54.27647 17.71896 17198 ft 408 kts 257°
2026-04-30 09:26 54.26765 17.67230 17900 ft 413 kts 257°
2026-04-30 09:26 54.25875 17.62530 18590 ft 418 kts 257°
2026-04-30 09:26 54.24971 17.57773 19228 ft 423 kts 258°
2026-04-30 09:26 54.24053 17.52948 19821 ft 430 kts 258°
2026-04-30 09:27 54.23126 17.48115 20422 ft 436 kts 257°
2026-04-30 09:27 54.21996 17.43249 20994 ft 445 kts 251°
2026-04-30 09:27 54.20666 17.38428 21568 ft 452 kts 249°
2026-04-30 09:27 54.19243 17.33602 22145 ft 458 kts 248°
2026-04-30 09:28 54.17778 17.28726 22694 ft 464 kts 248°
2026-04-30 09:28 54.16302 17.23808 23245 ft 468 kts 248°
2026-04-30 09:28 54.14820 17.18831 23771 ft 473 kts 248°
2026-04-30 09:28 54.13335 17.13806 24297 ft 478 kts 249°
2026-04-30 09:29 54.11836 17.08717 24851 ft 482 kts 249°
2026-04-30 09:29 54.10301 17.03608 25345 ft 488 kts 246°
2026-04-30 09:29 54.08582 16.98565 25857 ft 494 kts 243°
2026-04-30 09:29 54.06734 16.93590 26345 ft 500 kts 241°
2026-04-30 09:30 54.04822 16.88633 26828 ft 504 kts 241°
2026-04-30 09:30 54.02876 16.83634 27327 ft 508 kts 240°
2026-04-30 09:30 54.00917 16.78591 27780 ft 512 kts 241°
2026-04-30 09:30 53.98959 16.73513 28235 ft 516 kts 241°
2026-04-30 09:31 53.96984 16.68369 28611 ft 521 kts 241°
2026-04-30 09:31 53.95000 16.63195 29065 ft 524 kts 241°
2026-04-30 09:31 53.93002 16.57990 29503 ft 528 kts 241°
2026-04-30 09:31 53.90982 16.52756 29920 ft 532 kts 240°
2026-04-30 09:32 53.88939 16.47495 30344 ft 536 kts 240°
2026-04-30 09:32 53.86879 16.42206 30781 ft 538 kts 240°
2026-04-30 09:32 53.84814 16.36918 31356 ft 538 kts 240°
2026-04-30 09:32 53.82775 16.31698 31918 ft 537 kts 241°
2026-04-30 09:33 53.80718 16.26433 32480 ft 536 kts 241°
2026-04-30 09:33 53.78657 16.21163 32975 ft 536 kts 241°
2026-04-30 09:33 53.76599 16.15916 33445 ft 535 kts 241°
2026-04-30 09:33 53.74538 16.10663 33933 ft 535 kts 241°
2026-04-30 09:34 53.72477 16.05420 34388 ft 534 kts 241°
2026-04-30 09:34 53.70422 16.00208 34907 ft 532 kts 241°
2026-04-30 09:34 53.68382 15.95046 35427 ft 529 kts 241°
2026-04-30 09:34 53.66346 15.89901 35996 ft 524 kts 240°
2026-04-30 09:35 53.64331 15.84821 36464 ft 521 kts 240°
2026-04-30 09:35 53.62315 15.79748 36968 ft 517 kts 240°
2026-04-30 09:35 53.60316 15.74731 37378 ft 515 kts 240°
2026-04-30 09:35 53.58326 15.69761 37749 ft 510 kts 240°
2026-04-30 09:36 53.56348 15.64851 38115 ft 502 kts 240°
2026-04-30 09:36 53.54393 15.60002 38398 ft 501 kts 240°
2026-04-30 09:36 53.50781 15.49966 38471 ft 500 kts 251°
2026-04-30 09:37 53.48423 15.39066 38475 ft 494 kts 258°
2026-04-30 09:37 53.45464 15.28675 38475 ft 505 kts 238°
2026-04-30 09:38 53.40706 15.19902 38487 ft 511 kts 227°
2026-04-30 09:38 53.35616 15.11552 38483 ft 511 kts 228°
2026-04-30 09:39 53.30693 15.02984 38489 ft 510 kts 230°
2026-04-30 09:39 53.25865 14.94280 38483 ft 510 kts 230°
2026-04-30 09:40 53.21048 14.85573 38485 ft 510 kts 230°
2026-04-30 09:40 53.16225 14.76909 38485 ft 510 kts 230°
2026-04-30 09:41 53.11389 14.68270 38487 ft 510 kts 230°
2026-04-30 09:41 53.06571 14.59697 38483 ft 510 kts 230°
2026-04-30 09:42 53.01676 14.51018 38482 ft 511 kts 230°
2026-04-30 09:42 52.96808 14.42415 38488 ft 511 kts 230°
2026-04-30 09:43 52.91961 14.33909 38486 ft 511 kts 227°
2026-04-30 09:43 52.86287 14.26725 38491 ft 515 kts 212°
2026-04-30 09:44 52.80049 14.20797 38495 ft 517 kts 210°
2026-04-30 09:44 52.74847 14.15922 38495 ft 516 kts 211°
2026-04-30 09:45 52.68650 14.09928 38508 ft 516 kts 212°
2026-04-30 09:45 52.62480 14.03867 38498 ft 516 kts 212°
2026-04-30 09:46 52.56307 13.97809 38497 ft 517 kts 212°
2026-04-30 09:46 52.50131 13.91780 38499 ft 515 kts 211°
2026-04-30 09:47 52.42934 13.84784 38510 ft 515 kts 211°
2026-04-30 09:47 52.37795 13.79806 38510 ft 516 kts 211°
2026-04-30 09:48 52.31612 13.73833 38509 ft 516 kts 211°
2026-04-30 09:48 52.25422 13.67874 38510 ft 516 kts 211°
2026-04-30 09:49 52.19221 13.61928 38501 ft 516 kts 211°
2026-04-30 09:49 52.13018 13.56048 38495 ft 515 kts 211°
2026-04-30 09:50 52.06822 13.50177 38497 ft 515 kts 211°
2026-04-30 09:50 52.00672 13.44338 38495 ft 515 kts 211°
2026-04-30 09:51 51.94485 13.38470 38514 ft 515 kts 211°
2026-04-30 09:51 51.88293 13.32620 38511 ft 515 kts 211°
2026-04-30 09:52 51.82101 13.26792 38497 ft 515 kts 211°
2026-04-30 09:52 51.75997 13.20764 38499 ft 514 kts 214°
2026-04-30 09:53 51.70128 13.14194 38495 ft 513 kts 216°
2026-04-30 09:53 51.64314 13.07527 38507 ft 513 kts 216°
2026-04-30 09:54 51.58468 13.00902 38508 ft 513 kts 216°
2026-04-30 09:54 51.52623 12.94345 38501 ft 512 kts 216°
2026-04-30 09:55 51.46766 12.87804 38496 ft 512 kts 216°
2026-04-30 09:55 51.40918 12.81287 38495 ft 512 kts 216°
2026-04-30 09:56 51.35100 12.74828 38504 ft 512 kts 216°
2026-04-30 09:56 51.29240 12.68343 38510 ft 511 kts 216°
2026-04-30 09:57 51.23387 12.61883 38507 ft 511 kts 215°
2026-04-30 09:57 51.17526 12.55440 38497 ft 512 kts 215°
2026-04-30 09:58 51.11658 12.49004 38500 ft 511 kts 215°
2026-04-30 09:58 51.05778 12.42616 38511 ft 512 kts 215°
2026-04-30 09:59 50.94015 12.29880 38508 ft 511 kts 215°
2026-04-30 10:00 50.85217 12.20353 38497 ft 511 kts 215°
2026-04-30 10:01 50.76399 12.10851 38490 ft 511 kts 215°
2026-04-30 10:02 50.67572 12.01397 38480 ft 511 kts 214°
2026-04-30 10:02 50.61677 11.95101 38475 ft 511 kts 214°
2026-04-30 10:03 50.55789 11.88830 38469 ft 510 kts 214°
2026-04-30 10:03 50.49904 11.82586 38458 ft 510 kts 214°
2026-04-30 10:04 50.44059 11.76398 38458 ft 510 kts 214°
2026-04-30 10:04 50.38160 11.70206 38458 ft 510 kts 214°
2026-04-30 10:05 50.32245 11.64031 38458 ft 510 kts 214°
2026-04-30 10:05 50.26344 11.57858 38457 ft 510 kts 214°
2026-04-30 10:06 50.20448 11.51695 38446 ft 509 kts 214°
2026-04-30 10:06 50.14548 11.45542 38445 ft 509 kts 214°
2026-04-30 10:07 50.08651 11.39414 38452 ft 509 kts 214°
2026-04-30 10:07 50.02747 11.33300 38447 ft 509 kts 214°
2026-04-30 10:08 49.96849 11.27209 38448 ft 509 kts 214°
2026-04-30 10:08 49.90987 11.21176 38442 ft 508 kts 214°
2026-04-30 10:09 49.85099 11.15132 38438 ft 507 kts 214°
2026-04-30 10:09 49.79225 11.09119 38444 ft 506 kts 214°
2026-04-30 10:10 49.73343 11.03116 38434 ft 506 kts 213°
2026-04-30 10:10 49.67456 10.97166 38433 ft 505 kts 213°
2026-04-30 10:11 49.61565 10.91225 38432 ft 505 kts 213°
2026-04-30 10:11 49.55700 10.85303 38434 ft 504 kts 213°
2026-04-30 10:12 49.49891 10.79263 38428 ft 503 kts 219°
2026-04-30 10:12 49.44791 10.71957 38428 ft 501 kts 227°
2026-04-30 10:13 49.40034 10.64136 38422 ft 500 kts 229°
2026-04-30 10:13 49.35301 10.56309 38426 ft 500 kts 228°
2026-04-30 10:14 49.30442 10.48681 38422 ft 500 kts 226°
2026-04-30 10:14 49.23041 10.37406 38425 ft 500 kts 226°
2026-04-30 10:15 49.18156 10.29850 38416 ft 499 kts 227°
2026-04-30 10:15 49.13382 10.22258 38394 ft 498 kts 230°
2026-04-30 10:16 49.08937 10.14069 38397 ft 497 kts 233°
2026-04-30 10:17 49.02533 10.01706 38377 ft 496 kts 233°
2026-04-30 10:17 48.96047 9.89395 38375 ft 494 kts 233°
2026-04-30 10:18 48.91729 9.81268 38369 ft 493 kts 233°
2026-04-30 10:19 48.85309 9.69281 38042 ft 474 kts 232°
2026-04-30 10:19 48.83235 9.65434 37808 ft 469 kts 232°
2026-04-30 10:19 48.81166 9.61598 37414 ft 469 kts 232°
2026-04-30 10:19 48.79097 9.57756 36909 ft 470 kts 232°
2026-04-30 10:20 48.77025 9.53910 36421 ft 470 kts 232°
2026-04-30 10:20 48.72896 9.46264 35424 ft 478 kts 232°
2026-04-30 10:20 48.70772 9.42340 34899 ft 484 kts 231°
2026-04-30 10:21 48.68625 9.38377 34354 ft 487 kts 231°
2026-04-30 10:21 48.66479 9.34417 33815 ft 489 kts 231°
2026-04-30 10:21 48.64315 9.30422 33273 ft 491 kts 231°
2026-04-30 10:21 48.62070 9.26537 32717 ft 491 kts 225°
2026-04-30 10:22 48.59530 9.23086 32157 ft 491 kts 218°
2026-04-30 10:22 48.56819 9.19939 31588 ft 491 kts 215°
2026-04-30 10:22 48.54051 9.16935 31010 ft 491 kts 214°
2026-04-30 10:22 48.51260 9.13947 30435 ft 491 kts 214°
2026-04-30 10:23 48.48478 9.10944 29863 ft 491 kts 215°
2026-04-30 10:23 48.45714 9.07919 29284 ft 492 kts 215°
2026-04-30 10:23 48.42950 9.04860 28717 ft 493 kts 216°
2026-04-30 10:23 48.40186 9.01785 28128 ft 494 kts 216°
2026-04-30 10:24 48.37388 8.98666 27543 ft 496 kts 216°
2026-04-30 10:24 48.34642 8.95607 26971 ft 497 kts 216°
2026-04-30 10:24 48.31850 8.92501 26374 ft 498 kts 216°
2026-04-30 10:24 48.29062 8.89406 25788 ft 499 kts 216°
2026-04-30 10:25 48.26261 8.86304 25176 ft 501 kts 216°
2026-04-30 10:25 48.24405 8.84245 24782 ft 502 kts 216°
2026-04-30 10:25 48.21592 8.81120 24161 ft 504 kts 216°
2026-04-30 10:25 48.18779 8.77997 23549 ft 502 kts 216°
2026-04-30 10:26 48.15971 8.74900 22931 ft 498 kts 216°
2026-04-30 10:26 48.13186 8.71846 22290 ft 493 kts 215°
2026-04-30 10:26 48.10428 8.68834 21660 ft 487 kts 215°
2026-04-30 10:26 48.07704 8.65863 21038 ft 482 kts 215°
2026-04-30 10:27 48.05011 8.62931 20422 ft 476 kts 215°
2026-04-30 10:27 48.02355 8.60040 19823 ft 470 kts 215°
2026-04-30 10:27 47.99685 8.57259 19220 ft 464 kts 211°
2026-04-30 10:27 47.96817 8.55157 18596 ft 456 kts 197°
2026-04-30 10:28 47.93753 8.54254 17987 ft 445 kts 180°
2026-04-30 10:28 47.90720 8.54665 17423 ft 434 kts 163°
2026-04-30 10:28 47.87956 8.56316 16852 ft 423 kts 147°
2026-04-30 10:28 47.85512 8.58705 16343 ft 418 kts 141°
2026-04-30 10:29 47.83190 8.61290 15795 ft 414 kts 140°
2026-04-30 10:29 47.80893 8.63848 15258 ft 411 kts 141°
2026-04-30 10:29 47.78583 8.66320 14726 ft 408 kts 142°
2026-04-30 10:29 47.76264 8.68700 14198 ft 404 kts 143°
2026-04-30 10:30 47.73933 8.71025 13683 ft 401 kts 144°
2026-04-30 10:30 47.71601 8.73267 13165 ft 398 kts 147°
2026-04-30 10:30 47.69102 8.74998 12685 ft 398 kts 161°
2026-04-30 10:30 47.66358 8.75549 12215 ft 399 kts 181°
2026-04-30 10:31 47.63698 8.74669 11752 ft 399 kts 202°
2026-04-30 10:31 47.61396 8.72422 11378 ft 399 kts 224°
2026-04-30 10:31 47.59792 8.69107 11184 ft 393 kts 244°
2026-04-30 10:31 47.59031 8.65391 11091 ft 364 kts 264°
2026-04-30 10:32 47.59162 8.61803 10999 ft 336 kts 286°
2026-04-30 10:32 47.60065 8.58783 10913 ft 309 kts 303°
2026-04-30 10:32 47.61192 8.56186 10819 ft 296 kts 304°
2026-04-30 10:32 47.62297 8.53609 10715 ft 294 kts 309°
2026-04-30 10:33 47.63724 8.51449 10530 ft 293 kts 321°
2026-04-30 10:33 47.65297 8.49524 10134 ft 293 kts 323°
2026-04-30 10:33 47.66867 8.47622 9670 ft 291 kts 322°
2026-04-30 10:33 47.68411 8.45688 9206 ft 289 kts 321°
2026-04-30 10:34 47.69928 8.43728 8713 ft 289 kts 320°
2026-04-30 10:34 47.71435 8.41736 8085 ft 292 kts 320°
2026-04-30 10:34 47.72893 8.39622 7504 ft 294 kts 311°
2026-04-30 10:34 47.73831 8.36940 6899 ft 297 kts 283°
2026-04-30 10:35 47.73759 8.33927 6323 ft 294 kts 250°
2026-04-30 10:35 47.72763 8.31329 5826 ft 286 kts 228°
2026-04-30 10:35 47.71399 8.29224 5476 ft 277 kts 217°
2026-04-30 10:35 47.69768 8.27867 5119 ft 270 kts 194°
2026-04-30 10:36 47.67933 8.27694 4745 ft 262 kts 165°
2026-04-30 10:36 47.66328 8.28828 4365 ft 254 kts 140°
2026-04-30 10:36 47.65040 8.30495 4073 ft 236 kts 134°
2026-04-30 10:36 47.63909 8.32087 3929 ft 211 kts 133°
2026-04-30 10:37 47.62911 8.33468 3954 ft 187 kts 133°
2026-04-30 10:37 47.61982 8.34754 3975 ft 183 kts 134°
2026-04-30 10:37 47.61054 8.36042 3988 ft 183 kts 133°
2026-04-30 10:37 47.60125 8.37331 3943 ft 182 kts 133°
2026-04-30 10:38 47.59195 8.38611 3962 ft 186 kts 133°
2026-04-30 10:38 47.58246 8.39917 3983 ft 185 kts 134°
2026-04-30 10:38 47.57300 8.41212 3811 ft 184 kts 134°
2026-04-30 10:38 47.56369 8.42489 3575 ft 183 kts 134°
2026-04-30 10:39 47.55431 8.43767 3355 ft 181 kts 134°
2026-04-30 10:39 47.54560 8.44958 3038 ft 158 kts 134°
2026-04-30 10:39 47.53759 8.46050 2847 ft 155 kts 134°
2026-04-30 10:39 47.52965 8.47137 2723 ft 156 kts 134°
2026-04-30 10:40 47.52165 8.48236 2495 ft 157 kts 134°
2026-04-30 10:40 47.51364 8.49309 2263 ft 157 kts 135°
2026-04-30 10:40 47.50555 8.50410 2108 ft 157 kts 134°
2026-04-30 10:40 47.49769 8.51487 1862 ft 151 kts 134°
2026-04-30 10:41 47.48976 8.52555 1669 ft 158 kts 134°
2026-04-30 10:41 47.48179 8.53650 1449 ft 155 kts 134°
2026-04-30 10:41 47.47464 8.54632 1406 ft 118 kts 136°
2026-04-30 10:41 47.46949 8.55330 1408 ft 83 kts 137°
2026-04-30 10:42 47.46615 8.55782 1410 ft 48 kts 137°
2026-04-30 10:42 47.46434 8.55934 1409 ft 18 kts 163°
2026-04-30 10:42 47.46326 8.55975 1408 ft 15 kts 166°
2026-04-30 10:42 47.46239 8.56003 1418 ft 11 kts 170°
2026-04-30 10:43 47.46175 8.56002 1413 ft 8 kts 184°
2026-04-30 10:43 47.46114 8.55994 1414 ft 10 kts 186°
2026-04-30 10:43 47.46026 8.55981 1414 ft 15 kts 185°
2026-04-30 10:43 47.45930 8.55950 1417 ft 13 kts 198°
2026-04-30 10:44 47.45849 8.55909 1417 ft 11 kts 199°
2026-04-30 10:44 47.45780 8.55877 1422 ft 9 kts 191°
2026-04-30 10:44 47.45715 8.55865 1421 ft 10 kts 187°
2026-04-30 10:44 47.45647 8.55855 1420 ft 10 kts 186°
2026-04-30 10:45 47.45586 8.55847 1416 ft 8 kts 185°
2026-04-30 10:45 47.45536 8.55836 1417 ft 2 kts 199°
2026-04-30 10:45 47.45516 8.55807 1416 ft 7 kts 236°
2026-04-30 10:45 47.45512 8.55707 1415 ft 14 kts 275°
2026-04-30 10:46 47.45522 8.55559 1414 ft 13 kts 275°
2026-04-30 10:46 47.45513 8.55459 1418 ft 5 kts 242°
2026-04-30 10:46 47.45485 8.55432 1417 ft 5 kts 195°
2026-04-30 10:46 47.45444 8.55447 1418 ft 8 kts 149°
2026-04-30 10:47 47.45368 8.55509 1418 ft 16 kts 152°
2026-04-30 10:47 47.45284 8.55593 1415 ft 8 kts 127°
2026-04-30 10:47 47.45274 8.55644 1416 ft 7 kts 99°
2026-04-30 10:47 47.45262 8.55764 1414 ft 15 kts 96°
2026-04-30 10:48 47.45254 8.55889 1419 ft 6 kts 94°
2026-04-30 10:48 47.45259 8.55913 1414 ft 5 kts 64°
2026-04-30 10:48 47.45274 8.55927 1419 ft 3 kts 19°
2026-04-30 10:48 47.45305 8.55937 1420 ft 5 kts 10°
2026-04-30 10:49 47.45325 8.55942 1414 ft 1 kts
2026-04-30 10:49 47.45327 8.55942 1418 ft 0 kts